 day,  time,  air_temp(C),  RH(%),  ground_temp10cm(C),  ground_temp20cm(C),  ground_temp40cm(C),  precipitation(mm/h),  Solar_Radiation(MJ/m2h),  lack, 
 06/11/01, 01:00,   5.4,  59,   9.9,  11.5,  12.5,   0.0,  0.00, 
 06/11/01, 02:00,   4.6,  61,   9.5,  11.4,  12.5,   0.0,  0.00, 
 06/11/01, 03:00,   5.7,  54,   9.3,  11.3,  12.5,   0.0,  0.00, 
 06/11/01, 04:00,   5.2,  54,   9.1,  11.2,  12.5,   0.0,  0.00, 
 06/11/01, 05:00,   5.2,  57,   8.9,  11.1,  12.5,   0.0,  0.00, 
 06/11/01, 06:00,   5.7,  57,   8.8,  11.0,  12.5,   0.0,  0.00, 
 06/11/01, 07:00,   5.8,  70,   8.8,  10.9,  12.5,   0.0,  0.03, 
 06/11/01, 08:00,   8.1,  62,   8.6,  10.8,  12.5,   0.0,  0.54, 
 06/11/01, 09:00,   9.3,  63,   8.7,  10.7,  12.5,   0.0,  1.33, 
 06/11/01, 10:00,   9.2,  69,   8.9,  10.7,  12.5,   0.0,  1.91, 
 06/11/01, 11:00,  10.4,  70,   9.4,  10.6,  12.4,   0.0,  2.17, 
 06/11/01, 12:00,  10.6,  74,  10.0,  10.6,  12.5,   0.0,  2.44, 
 06/11/01, 13:00,  10.5,  76,  10.7,  10.6,  12.5,   0.0,  1.57, 
 06/11/01, 14:00,  10.4,  77,  11.1,  10.7,  12.5,   0.0,  1.19, 
 06/11/01, 15:00,  10.7,  78,  11.3,  10.8,  12.4,   0.0,  1.33, 
 06/11/01, 16:00,  10.0,  80,  11.5,  10.9,  12.4,   0.0,  0.95, 
 06/11/01, 17:00,   8.3,  88,  11.5,  11.0,  12.4,   0.0,  0.19, 
 06/11/01, 18:00,   6.5,  94,  11.4,  11.1,  12.4,   0.0,  0.00, 
 06/11/01, 19:00,   5.0,  98,  11.1,  11.2,  12.4,   0.0,  0.00, 
 06/11/01, 20:00,   6.0,  99,  10.8,  11.2,  12.3,   0.0,  0.00, 
 06/11/01, 21:00,   5.1,  99,  10.7,  11.2,  12.3,   0.0,  0.00, 
 06/11/01, 22:00,   4.8,  99,  10.4,  11.2,  12.2,   0.0,  0.00, 
 06/11/01, 23:00,   5.0,  99,  10.3,  11.2,  12.2,   0.0,  0.00, 
 06/11/02, 00:00,   6.2,  99,  10.1,  11.2,  12.2,   0.0,  0.00, 
 06/11/02, 01:00,   6.6,  96,  10.0,  11.1,  12.3,   0.0,  0.00, 
 06/11/02, 02:00,   6.2,  96,   9.8,  11.1,  12.2,   0.0,  0.00, 
 06/11/02, 03:00,   6.3,  99,   9.8,  11.1,  12.2,   0.0,  0.00, 
 06/11/02, 04:00,   6.3,  99,   9.6,  11.0,  12.2,   0.0,  0.00, 
 06/11/02, 05:00,   6.0,  99,   9.5,  11.0,  12.3,   0.0,  0.00, 
 06/11/02, 06:00,   4.6,  99,   9.5,  10.9,  12.2,   0.0,  0.00, 
 06/11/02, 07:00,   5.1,  99,   9.3,  10.9,  12.2,   0.0,  0.00, 
 06/11/02, 08:00,   6.8,  94,   9.2,  10.8,  12.2,   0.0,  0.26, 
 06/11/02, 09:00,   9.0,  78,   9.2,  10.8,  12.2,   0.0,  0.64, 
 06/11/02, 10:00,  10.1,  69,   9.4,  10.7,  12.2,   0.0,  1.73, 
 06/11/02, 11:00,   9.7,  76,  10.0,  10.7,  12.1,   0.0,  1.00, 
 06/11/02, 12:00,  10.0,  78,  10.3,  10.7,  12.2,   0.0,  0.72, 
 06/11/02, 13:00,   7.1,  95,  10.4,  10.7,  12.1,   0.0,  0.40, 
 06/11/02, 14:00,   9.8,  77,  10.5,  10.7,  12.2,   0.0,  1.23, 
 06/11/02, 15:00,  10.1,  77,  10.8,  10.8,  12.2,   0.0,  1.12, 
 06/11/02, 16:00,   7.8,  99,  10.7,  10.8,  12.1,   0.0,  0.19, 
 06/11/02, 17:00,   6.8,  97,  10.8,  10.9,  12.1,   0.0,  0.04, 
 06/11/02, 18:00,   6.7,  99,  10.6,  10.9,  12.1,   0.0,  0.00, 
 06/11/02, 19:00,   6.4,  99,  10.6,  11.0,  12.2,   0.0,  0.00, 
 06/11/02, 20:00,   5.0,  99,  10.4,  11.0,  12.1,   0.0,  0.00, 
 06/11/02, 21:00,   4.2,  99,  10.3,  11.0,  12.1,   0.0,  0.00, 
 06/11/02, 22:00,   4.0,  99,  10.1,  11.0,  12.1,   0.0,  0.00, 
 06/11/02, 23:00,   3.5,  99,   9.9,  11.0,  12.1,   0.0,  0.00, 
 06/11/03, 00:00,   3.6,  99,   9.5,  10.9,  12.0,   0.0,  0.00, 
 06/11/03, 01:00,   3.5,  99,   9.3,  10.9,  12.1,   0.0,  0.00, 
 06/11/03, 02:00,   3.6,  99,   9.1,  10.8,  12.1,   0.0,  0.00, 
 06/11/03, 03:00,   2.7,  99,   8.9,  10.8,  12.0,   0.0,  0.00, 
 06/11/03, 04:00,   3.2,  98,   8.8,  10.7,  12.1,   0.0,  0.00, 
 06/11/03, 05:00,   2.4,  99,   8.5,  10.6,  12.1,   0.0,  0.00, 
 06/11/03, 06:00,   2.9,  98,   8.3,  10.4,  12.0,   0.0,  0.00, 
 06/11/03, 07:00,   2.5,  99,   8.1,  10.4,  12.1,   0.0,  0.01, 
 06/11/03, 08:00,   4.8,  98,   8.1,  10.3,  12.0,   0.0,  0.60, 
 06/11/03, 09:00,   7.3,  83,   8.0,  10.2,  12.0,   0.0,  1.31, 
 06/11/03, 10:00,   7.9,  84,   8.2,  10.1,  12.0,   0.0,  1.89, 
 06/11/03, 11:00,   8.8,  81,   8.9,  10.1,  12.0,   0.0,  2.24, 
 06/11/03, 12:00,  10.3,  66,   9.3,  10.0,  12.0,   0.0,  2.42, 
 06/11/03, 13:00,  10.5,  67,  10.2,  10.0,  12.0,   0.0,  2.32, 
 06/11/03, 14:00,  10.6,  48,  10.9,  10.1,  12.0,   0.0,  2.03, 
 06/11/03, 15:00,  10.9,  33,  11.1,  10.2,  11.9,   0.0,  1.50, 
 06/11/03, 16:00,  10.1,  58,  11.0,  10.4,  12.0,   0.0,  0.73, 
 06/11/03, 17:00,   9.0,  71,  10.7,  10.5,  11.9,   0.0,  0.11, 
 06/11/03, 18:00,   6.3,  84,  10.5,  10.6,  11.9,   0.0,  0.00, 
 06/11/03, 19:00,   5.8,  86,  10.4,  10.7,  11.8,   0.0,  0.00, 
 06/11/03, 20:00,   7.1,  83,  10.0,  10.6,  11.8,   0.0,  0.00, 
 06/11/03, 21:00,   6.6,  85,   9.9,  10.7,  11.8,   0.0,  0.00, 
 06/11/03, 22:00,   5.3,  91,   9.7,  10.7,  11.8,   0.0,  0.00, 
 06/11/03, 23:00,   5.7,  88,   9.4,  10.7,  11.8,   0.0,  0.00, 
 06/11/04, 00:00,   4.1,  94,   9.2,  10.6,  11.8,   0.0,  0.00, 
 06/11/04, 01:00,   3.7,  95,   9.0,  10.5,  11.8,   0.0,  0.00, 
 06/11/04, 02:00,   3.7,  94,   8.8,  10.5,  11.8,   0.0,  0.00, 
 06/11/04, 03:00,   3.6,  92,   8.6,  10.4,  11.7,   0.0,  0.00, 
 06/11/04, 04:00,   3.8,  90,   8.4,  10.4,  11.7,   0.0,  0.00, 
 06/11/04, 05:00,   3.7,  78,   8.3,  10.3,  11.7,   0.0,  0.00, 
 06/11/04, 06:00,   3.7,  82,   8.1,  10.2,  11.7,   0.0,  0.00, 
 06/11/04, 07:00,   4.1,  81,   7.9,  10.1,  11.7,   0.0,  0.01, 
 06/11/04, 08:00,   7.4,  77,   7.8,  10.0,  11.7,   0.0,  0.55, 
 06/11/04, 09:00,   9.0,  68,   7.8,   9.9,  11.8,   0.0,  1.25, 
 06/11/04, 10:00,  10.2,  57,   8.1,   9.9,  11.8,   0.0,  1.85, 
 06/11/04, 11:00,  10.9,  58,   8.7,   9.8,  11.8,   0.0,  2.22, 
 06/11/04, 12:00,  11.6,  59,   9.2,   9.8,  11.8,   0.0,  2.39, 
 06/11/04, 13:00,  11.8,  54,   9.9,   9.8,  11.7,   0.0,  2.21, 
 06/11/04, 14:00,  12.2,  48,  10.5,   9.8,  11.6,   0.0,  1.94, 
 06/11/04, 15:00,  11.2,  54,  10.9,  10.0,  11.7,   0.0,  1.44, 
 06/11/04, 16:00,  10.2,  59,  10.9,  10.1,  11.7,   0.0,  0.68, 
 06/11/04, 17:00,   8.5,  65,  10.6,  10.2,  11.7,   0.0,  0.07, 
 06/11/04, 18:00,   7.1,  71,  10.4,  10.3,  11.7,   0.0,  0.00, 
 06/11/04, 19:00,   6.9,  72,  10.1,  10.4,  11.7,   0.0,  0.00, 
 06/11/04, 20:00,   7.3,  69,   9.9,  10.5,  11.6,   0.0,  0.00, 
 06/11/04, 21:00,   5.1,  80,   9.5,  10.5,  11.5,   0.0,  0.00, 
 06/11/04, 22:00,   5.3,  77,   9.3,  10.4,  11.5,   0.0,  0.00, 
 06/11/04, 23:00,   6.1,  71,   9.0,  10.4,  11.5,   0.0,  0.00, 
 06/11/05, 00:00,   5.5,  73,   8.8,  10.4,  11.5,   0.0,  0.00, 
 06/11/05, 01:00,   5.9,  69,   8.6,  10.3,  11.5,   0.0,  0.00, 
 06/11/05, 02:00,   6.6,  72,   8.4,  10.2,  11.5,   0.0,  0.00, 
 06/11/05, 03:00,   7.1,  76,   8.3,  10.1,  11.5,   0.0,  0.00, 
 06/11/05, 04:00,   6.3,  83,   8.3,  10.1,  11.5,   0.0,  0.00, 
 06/11/05, 05:00,   6.5,  83,   8.3,  10.0,  11.5,   0.0,  0.00, 
 06/11/05, 06:00,   5.9,  84,   8.2,   9.9,  11.5,   0.0,  0.00, 
 06/11/05, 07:00,   6.4,  80,   8.0,   9.9,  11.5,   0.0,  0.01, 
 06/11/05, 08:00,   8.2,  80,   8.0,   9.8,  11.5,   0.0,  0.42, 
 06/11/05, 09:00,  10.1,  71,   8.0,   9.7,  11.5,   0.0,  1.09, 
 06/11/05, 10:00,  12.2,  61,   8.2,   9.7,  11.6,   0.0,  1.57, 
 06/11/05, 11:00,  12.5,  61,   8.8,   9.6,  11.5,   0.0,  2.34, 
 06/11/05, 12:00,  12.6,  63,   9.4,   9.6,  11.5,   0.0,  2.56, 
 06/11/05, 13:00,  12.9,  60,  10.1,   9.7,  11.5,   0.0,  2.24, 
 06/11/05, 14:00,  14.0,  52,  10.8,   9.7,  11.5,   0.0,  1.95, 
 06/11/05, 15:00,  12.0,  53,  11.2,   9.9,  11.5,   0.0,  1.34, 
 06/11/05, 16:00,  11.2,  56,  11.1,  10.0,  11.5,   0.0,  0.64, 
 06/11/05, 17:00,   9.5,  70,  10.9,  10.2,  11.5,   0.0,  0.09, 
 06/11/05, 18:00,   8.4,  80,  10.7,  10.3,  11.4,   0.0,  0.00, 
 06/11/05, 19:00,   7.8,  81,  10.4,  10.4,  11.4,   0.0,  0.00, 
 06/11/05, 20:00,   8.2,  66,  10.1,  10.4,  11.4,   0.0,  0.00, 
 06/11/05, 21:00,   7.4,  66,   9.9,  10.5,  11.4,   0.0,  0.00, 
 06/11/05, 22:00,   7.6,  70,   9.7,  10.5,  11.4,   0.0,  0.00, 
 06/11/05, 23:00,   8.9,  73,   9.5,  10.4,  11.4,   0.0,  0.00, 
 06/11/06, 00:00,   9.1,  75,   9.3,  10.4,  11.4,   0.0,  0.00, 
 06/11/06, 01:00,   9.1,  74,   9.2,  10.3,  11.4,   0.0,  0.00, 
 06/11/06, 02:00,   8.7,  78,   9.1,  10.3,  11.4,   0.0,  0.00, 
 06/11/06, 03:00,   8.5,  83,   9.0,  10.3,  11.4,   0.0,  0.00, 
 06/11/06, 04:00,   8.3,  85,   8.9,  10.2,  11.4,   0.0,  0.00, 
 06/11/06, 05:00,   9.1,  82,   8.8,  10.1,  11.3,   0.0,  0.00, 
 06/11/06, 06:00,   8.8,  81,   8.8,  10.1,  11.3,   0.0,  0.00, 
 06/11/06, 07:00,   9.4,  84,   8.6,  10.0,  11.3,   0.0,  0.01, 
 06/11/06, 08:00,   9.9,  85,   8.6,  10.0,  11.3,   0.0,  0.24, 
 06/11/06, 09:00,  10.6,  89,   8.8,  10.0,  11.3,   0.0,  0.60, 
 06/11/06, 10:00,  12.1,  76,   8.9,   9.9,  11.4,   0.0,  1.11, 
 06/11/06, 11:00,  12.6,  70,   9.3,   9.9,  11.4,   0.0,  1.46, 
 06/11/06, 12:00,  12.1,  69,   9.7,   9.9,  11.4,   0.0,  1.08, 
 06/11/06, 13:00,  12.1,  78,  10.1,   9.9,  11.4,   0.0,  0.74, 
 06/11/06, 14:00,  10.6,  96,  10.3,  10.0,  11.4,   0.0,  0.55, 
 06/11/06, 15:00,  10.8,  85,  10.4,  10.1,  11.4,   0.0,  0.44, 
 06/11/06, 16:00,  10.4,  90,  10.4,  10.1,  11.4,   0.0,  0.12, 
 06/11/06, 17:00,   8.9,  99,  10.4,  10.2,  11.4,   0.5,  0.00, 
 06/11/06, 18:00,   8.5,  99,  10.4,  10.3,  11.3,   2.5,  0.00, 
 06/11/06, 19:00,   7.8,  99,  10.3,  10.3,  11.4,   4.5,  0.00, 
 06/11/06, 20:00,   8.5,  94,  10.2,  10.4,  11.4,   0.5,  0.00, 
 06/11/06, 21:00,   8.4,  96,  10.1,  10.4,  11.3,   0.0,  0.00, 
 06/11/06, 22:00,   8.6,  97,  10.0,  10.4,  11.3,   0.5,  0.00, 
 06/11/06, 23:00,   8.4,  99,   9.9,  10.4,  11.3,   0.5,  0.00, 
 06/11/07, 00:00,   8.8,  99,   9.8,  10.4,  11.3,   1.0,  0.00, 
 06/11/07, 01:00,   7.4,  99,   9.8,  10.4,  11.4,   1.5,  0.00, 
 06/11/07, 02:00,   7.0,  99,   9.5,  10.4,  11.3,  12.5,  0.00, 
 06/11/07, 03:00,   6.9,  99,   9.1,  10.3,  11.3,   2.5,  0.00, 
 06/11/07, 04:00,   7.4,  99,   9.0,  10.3,  11.3,   0.0,  0.00, 
 06/11/07, 05:00,   6.8,  99,   8.9,  10.2,  11.3,   0.0,  0.00, 
 06/11/07, 06:00,   6.4,  95,   8.9,  10.1,  11.2,   0.0,  0.00, 
 06/11/07, 07:00,   5.9,  97,   8.8,  10.1,  11.2,   1.0,  0.00, 
 06/11/07, 08:00,   5.5,  99,   8.8,  10.0,  11.2,   1.0,  0.02, 
 06/11/07, 09:00,   4.9,  99,   8.6,   9.9,  11.2,   0.0,  0.09, 
 06/11/07, 10:00,   4.0,  99,   8.5,   9.9,  11.2,   1.0,  0.25, 
 06/11/07, 11:00,   3.9,  94,   8.5,   9.8,  11.2,   0.0,  0.68, 
 06/11/07, 12:00,   3.3,  96,   8.5,   9.8,  11.2,   0.5,  0.64, 
 06/11/07, 13:00,   2.6,  87,   8.6,   9.7,  11.2,   0.0,  0.83, 
 06/11/07, 14:00,   1.0,  84,   8.8,   9.7,  11.2,   0.0,  0.57, 
 06/11/07, 15:00,   0.6,  86,   8.7,   9.7,  11.1,   0.0,  0.82, 
 06/11/07, 16:00,  -0.9,  95,   8.7,   9.6,  11.1,   0.0,  0.24, 
 06/11/07, 17:00,  -2.3,  98,   8.5,   9.6,  11.1,   0.5,  0.00, 
 06/11/07, 18:00,  -2.2,  96,   8.1,   9.6,  11.0,   0.0,  0.00, 
 06/11/07, 19:00,  -2.2,  92,   8.0,   9.6,  11.1,   0.0,  0.00, 
 06/11/07, 20:00,  -1.9,  83,   7.6,   9.5,  11.1,   0.0,  0.00, 
 06/11/07, 21:00,  -1.7,  88,   7.4,   9.4,  11.1,   0.0,  0.00, 
 06/11/07, 22:00,  -1.5,  87,   7.2,   9.4,  11.1,   0.0,  0.00, 
 06/11/07, 23:00,  -0.6,  76,   7.2,   9.3,  10.9,   0.0,  0.00, 
 06/11/08, 00:00,  -1.0,  76,   7.0,   9.2,  11.0,   0.0,  0.00, 
 06/11/08, 01:00,  -0.8,  73,   6.8,   9.1,  11.0,   0.0,  0.00, 
 06/11/08, 02:00,  -1.2,  77,   6.6,   9.0,  11.0,   0.0,  0.00, 
 06/11/08, 03:00,  -0.8,  78,   6.3,   8.9,  11.0,   0.0,  0.00, 
 06/11/08, 04:00,  -0.4,  78,   6.1,   8.8,  11.0,   0.0,  0.00, 
 06/11/08, 05:00,  -0.1,  77,   5.9,   8.7,  10.8,   0.5,  0.00, 
 06/11/08, 06:00,   0.2,  78,   5.8,   8.6,  10.9,   0.0,  0.00, 
 06/11/08, 07:00,  -0.8,  83,   5.6,   8.5,  10.8,   0.0,  0.00, 
 06/11/08, 08:00,   2.2,  68,   5.5,   8.4,  10.8,   0.0,  0.55, 
 06/11/08, 09:00,   8.7,  61,   5.4,   8.3,  10.9,   0.0,  1.33, 
 06/11/08, 10:00,  10.9,  52,   5.5,   8.2,  10.8,   0.0,  1.89, 
 06/11/08, 11:00,  10.2,  50,   6.2,   8.1,  10.8,   0.0,  2.24, 
 06/11/08, 12:00,  11.9,  51,   6.9,   8.0,  10.8,   0.0,  2.41, 
 06/11/08, 13:00,  10.4,  65,   7.8,   8.0,  10.7,   0.0,  2.30, 
 06/11/08, 14:00,  11.2,  48,   8.7,   8.1,  10.5,   0.0,  1.98, 
 06/11/08, 15:00,  10.9,  43,   9.1,   8.2,  10.7,   0.0,  1.44, 
 06/11/08, 16:00,   9.5,  54,   9.0,   8.4,  10.7,   0.0,  0.62, 
 06/11/08, 17:00,   8.2,  60,   8.8,   8.5,  10.6,   0.0,  0.02, 
 06/11/08, 18:00,   5.4,  63,   8.6,   8.6,  10.6,   0.0,  0.00, 
 06/11/08, 19:00,   7.2,  42,   8.3,   8.7,  10.5,   0.0,  0.00, 
 06/11/08, 20:00,   5.6,  45,   8.0,   8.8,  10.5,   0.0,  0.00, 
 06/11/08, 21:00,   6.2,  39,   7.7,   8.8,  10.5,   0.0,  0.00, 
 06/11/08, 22:00,   7.4,  33,   7.5,   8.8,  10.4,   0.0,  0.00, 
 06/11/08, 23:00,   6.1,  39,   7.2,   8.7,  10.5,   0.0,  0.00, 
 06/11/09, 00:00,   4.3,  49,   7.0,   8.7,  10.5,   0.0,  0.00, 
 06/11/09, 01:00,   4.1,  47,   6.8,   8.6,  10.5,   0.0,  0.00, 
 06/11/09, 02:00,   5.6,  39,   6.6,   8.6,  10.4,   0.0,  0.00, 
 06/11/09, 03:00,   6.6,  33,   6.3,   8.5,  10.4,   0.0,  0.00, 
 06/11/09, 04:00,   4.7,  37,   6.2,   8.4,  10.5,   0.0,  0.00, 
 06/11/09, 05:00,   4.9,  35,   6.0,   8.3,  10.3,   0.0,  0.00, 
 06/11/09, 06:00,   4.7,  34,   5.8,   8.3,  10.3,   0.0,  0.00, 
 06/11/09, 07:00,   6.6,  26,   5.7,   8.2,  10.4,   0.0,  0.00, 
 06/11/09, 08:00,   8.4,  29,   5.6,   8.1,  10.4,   0.0,  0.53, 
 06/11/09, 09:00,  11.0,  26,   5.6,   8.0,  10.4,   0.0,  1.31, 
 06/11/09, 10:00,  11.7,  33,   5.7,   7.9,  10.4,   0.0,  1.88, 
 06/11/09, 11:00,  11.9,  44,   6.5,   7.8,  10.4,   0.0,  2.22, 
 06/11/09, 12:00,  12.5,  59,   7.1,   7.8,  10.3,   0.0,  2.37, 
 06/11/09, 13:00,  12.5,  55,   7.8,   7.8,  10.2,   0.0,  2.25, 
 06/11/09, 14:00,  12.3,  50,   8.6,   7.9,  10.4,   0.0,  1.97, 
 06/11/09, 15:00,  11.3,  60,   9.0,   8.0,  10.3,   0.0,  1.45, 
 06/11/09, 16:00,   9.8,  66,   9.0,   8.2,  10.3,   0.0,  0.59, 
 06/11/09, 17:00,   9.0,  73,   8.8,   8.3,  10.2,   0.0,  0.04, 
 06/11/09, 18:00,   7.8,  80,   8.6,   8.5,  10.2,   0.0,  0.00, 
 06/11/09, 19:00,   8.2,  70,   8.4,   8.6,  10.2,   0.0,  0.00, 
 06/11/09, 20:00,   7.7,  74,   8.2,   8.6,  10.2,   0.0,  0.00, 
 06/11/09, 21:00,   7.7,  75,   8.0,   8.7,  10.2,   0.0,  0.00, 
 06/11/09, 22:00,   8.3,  75,   7.8,   8.7,  10.2,   0.0,  0.00, 
 06/11/09, 23:00,   8.7,  76,   7.7,   8.7,  10.2,   0.0,  0.00, 
 06/11/10, 00:00,   8.9,  78,   7.6,   8.6,  10.2,   0.0,  0.00, 
 06/11/10, 01:00,   8.4,  81,   7.5,   8.6,  10.2,   0.0,  0.00, 
 06/11/10, 02:00,   8.6,  80,   7.5,   8.6,  10.2,   0.0,  0.00, 
 06/11/10, 03:00,   8.8,  81,   7.5,   8.5,  10.2,   0.0,  0.00, 
 06/11/10, 04:00,   7.9,  93,   7.5,   8.5,  10.2,   0.0,  0.00, 
 06/11/10, 05:00,   8.6,  88,   7.5,   8.5,  10.2,   0.0,  0.00, 
 06/11/10, 06:00,   8.7,  89,   7.6,   8.5,  10.2,   0.0,  0.00, 
 06/11/10, 07:00,   8.9,  88,   7.6,   8.5,  10.1,   0.0,  0.00, 
 06/11/10, 08:00,   9.5,  84,   7.6,   8.5,  10.1,   0.0,  0.13, 
 06/11/10, 09:00,  11.0,  77,   7.7,   8.5,  10.1,   0.0,  0.70, 
 06/11/10, 10:00,  12.4,  75,   8.0,   8.5,  10.1,   0.0,  1.80, 
 06/11/10, 11:00,  12.4,  64,   8.6,   8.5,  10.2,   0.0,  1.88, 
 06/11/10, 12:00,  13.5,  56,   9.1,   8.5,  10.2,   0.0,  1.94, 
 06/11/10, 13:00,  14.5,  56,   9.7,   8.6,  10.2,   0.0,  2.34, 
 06/11/10, 14:00,  12.7,  58,  10.4,   8.7,  10.1,   0.0,  1.01, 
 06/11/10, 15:00,  12.8,  58,  10.6,   8.9,  10.1,   0.0,  0.73, 
 06/11/10, 16:00,  11.9,  64,  10.6,   9.1,  10.2,   0.0,  0.35, 
 06/11/10, 17:00,  10.8,  70,  10.5,   9.2,  10.2,   0.0,  0.06, 
 06/11/10, 18:00,   9.8,  73,  10.3,   9.3,  10.1,   0.0,  0.00, 
 06/11/10, 19:00,   8.6,  77,  10.1,   9.4,  10.1,   0.0,  0.00, 
 06/11/10, 20:00,   9.3,  77,   9.9,   9.5,  10.0,   0.0,  0.00, 
 06/11/10, 21:00,   8.3,  89,   9.8,   9.6,  10.1,   0.0,  0.00, 
 06/11/10, 22:00,   8.0,  96,   9.7,   9.6,  10.1,   0.0,  0.00, 
 06/11/10, 23:00,   7.1,  98,   9.6,   9.6,  10.2,   0.0,  0.00, 
 06/11/11, 00:00,   6.3,  99,   9.5,   9.6,  10.2,   0.0,  0.00, 
 06/11/11, 01:00,   7.0,  87,   9.4,   9.6,  10.2,   0.5,  0.00, 
 06/11/11, 02:00,   6.3,  96,   9.2,   9.6,  10.2,   0.0,  0.00, 
 06/11/11, 03:00,   8.9,  86,   9.1,   9.6,  10.2,   0.0,  0.00, 
 06/11/11, 04:00,   9.3,  77,   9.1,   9.6,  10.2,   0.0,  0.00, 
 06/11/11, 05:00,   5.8,  99,   9.0,   9.6,  10.2,   3.0,  0.00, 
 06/11/11, 06:00,   6.4,  99,   8.9,   9.5,  10.3,   6.0,  0.00, 
 06/11/11, 07:00,   6.5,  99,   8.7,   9.5,  10.3,   3.0,  0.00, 
 06/11/11, 08:00,   6.5,  99,   8.6,   9.4,  10.3,   3.0,  0.01, 
 06/11/11, 09:00,   7.2,  98,   8.5,   9.4,  10.2,   1.0,  0.23, 
 06/11/11, 10:00,   6.8,  99,   8.5,   9.3,  10.2,   1.0,  0.09, 
 06/11/11, 11:00,   7.2,  99,   8.5,   9.3,  10.2,   0.5,  0.31, 
 06/11/11, 12:00,   6.7,  99,   8.5,   9.2,  10.2,   1.5,  0.18, 
 06/11/11, 13:00,   6.8,  99,   8.6,   9.2,  10.1,   1.0,  0.20, 
 06/11/11, 14:00,   6.6,  99,   8.6,   9.2,  10.2,   1.0,  0.15, 
 06/11/11, 15:00,   6.6,  99,   8.5,   9.1,  10.2,   1.0,  0.10, 
 06/11/11, 16:00,   6.3,  99,   8.6,   9.1,  10.2,   0.5,  0.02, 
 06/11/11, 17:00,   6.1,  99,   8.5,   9.1,  10.2,   0.0,  0.00, 
 06/11/11, 18:00,   5.0,  99,   8.5,   9.1,  10.2,   1.5,  0.00, 
 06/11/11, 19:00,   4.4,  99,   8.4,   9.1,  10.2,   2.5,  0.00, 
 06/11/11, 20:00,   2.4,  99,   8.3,   9.1,  10.2,   2.5,  0.00, 
 06/11/11, 21:00,   1.8,  99,   8.1,   9.0,  10.2,   0.0,  0.00, 
 06/11/11, 22:00,   1.1,  99,   7.9,   9.0,  10.2,   0.0,  0.00, 
 06/11/11, 23:00,   0.8,  99,   7.7,   9.0,  10.1,   0.0,  0.00, 
 06/11/12, 00:00,   0.5,  99,   7.6,   8.9,  10.1,   0.0,  0.00, 
 06/11/12, 01:00,   0.3,  98,   7.3,   8.8,  10.1,   0.0,  0.00, 
 06/11/12, 02:00,  -0.2,  99,   7.2,   8.8,  10.1,   0.0,  0.00, 
 06/11/12, 03:00,  -0.7,  99,   7.0,   8.7,  10.1,   0.5,  0.00, 
 06/11/12, 04:00,  -1.3,  98,   6.8,   8.6,  10.1,   0.5,  0.00, 
 06/11/12, 05:00,  -2.1,  98,   6.5,   8.5,  10.1,   1.0,  0.00, 
 06/11/12, 06:00,  -2.5,  96,   6.5,   8.4,  10.1,   0.0,  0.00, 
 06/11/12, 07:00,  -2.4,  98,   6.2,   8.4,  10.0,   0.0,  0.00, 
 06/11/12, 08:00,  -2.5,  97,   6.1,   8.3,  10.1,   1.0,  0.05, 
 06/11/12, 09:00,  -2.4,  92,   6.0,   8.2,  10.1,   0.5,  0.44, 
 06/11/12, 10:00,  -2.6,  95,   5.9,   8.1,  10.0,   0.0,  0.23, 
 06/11/12, 11:00,  -2.4,  99,   5.8,   8.0,  10.0,   0.5,  0.26, 
 06/11/12, 12:00,  -2.7,  97,   5.8,   7.9,  10.0,   2.0,  0.20, 
 06/11/12, 13:00,  -2.6,  99,   5.7,   7.9,  10.0,   0.5,  0.31, 
 06/11/12, 14:00,  -3.1,  96,   5.6,   7.8,  10.0,   1.0,  0.35, 
 06/11/12, 15:00,  -3.0,  94,   5.6,   7.7,  10.0,   0.5,  0.28, 
 06/11/12, 16:00,  -2.8,  95,   5.5,   7.6,   9.9,   0.5,  0.41, 
 06/11/12, 17:00,  -3.1,  95,   5.5,   7.6,   9.9,   0.5,  0.05, 
 06/11/12, 18:00,  -3.0,  86,   5.4,   7.5,   9.9,   0.0,  0.00, 
 06/11/12, 19:00,  -3.0,  86,   5.4,   7.5,   9.8,   0.0,  0.00, 
 06/11/12, 20:00,  -3.1,  90,   5.3,   7.4,   9.8,   0.0,  0.00, 
 06/11/12, 21:00,  -2.7,  86,   5.3,   7.4,   9.7,   0.5,  0.00, 
 06/11/12, 22:00,  -2.6,  85,   5.2,   7.2,   9.7,   0.0,  0.00, 
 06/11/12, 23:00,  -3.2,  86,   5.2,   7.2,   9.7,   0.0,  0.00, 
 06/11/13, 00:00,  -3.3,  86,   5.1,   7.2,   9.6,   0.0,  0.00, 
 06/11/13, 01:00,  -2.6,  79,   5.1,   7.2,   9.6,   0.0,  0.00, 
 06/11/13, 02:00,  -2.4,  80,   5.1,   7.1,   9.6,   0.0,  0.00, 
 06/11/13, 03:00,  -2.7,  84,   5.0,   7.1,   9.6,   0.0,  0.00, 
 06/11/13, 04:00,  -2.9,  86,   5.0,   7.0,   9.5,   0.0,  0.00, 
 06/11/13, 05:00,  -2.0,  79,   5.0,   7.0,   9.5,   0.0,  0.00, 
 06/11/13, 06:00,  -1.8,  77,   4.9,   6.9,   9.5,   0.0,  0.00, 
 06/11/13, 07:00,  -1.3,  77,   4.8,   6.9,   9.4,   0.0,  0.00, 
 06/11/13, 08:00,  -0.4,  78,   4.9,   6.9,   9.4,   0.0,  0.47, 
 06/11/13, 09:00,   1.8,  81,   4.8,   6.8,   9.4,   0.0,  1.22, 
 06/11/13, 10:00,   3.5,  78,   4.8,   6.8,   9.4,   0.0,  1.78, 
 06/11/13, 11:00,   4.1,  72,   4.8,   6.8,   9.2,   0.0,  1.96, 
 06/11/13, 12:00,   5.2,  69,   4.8,   6.7,   9.3,   0.0,  2.32, 
 06/11/13, 13:00,   6.6,  71,   4.9,   6.7,   9.4,   0.0,  2.19, 
 06/11/13, 14:00,   6.9,  76,   5.5,   6.7,   9.3,   0.0,  1.80, 
 06/11/13, 15:00,   6.2,  74,   5.9,   6.6,   9.3,   0.0,  1.30, 
 06/11/13, 16:00,   5.8,  71,   6.0,   6.7,   9.3,   0.0,  0.55, 
 06/11/13, 17:00,   4.0,  81,   6.0,   6.7,   9.3,   0.0,  0.05, 
 06/11/13, 18:00,   4.2,  77,   5.8,   6.8,   9.2,   0.0,  0.00, 
 06/11/13, 19:00,   5.2,  69,   5.7,   6.8,   9.2,   0.0,  0.00, 
 06/11/13, 20:00,   6.4,  56,   5.5,   6.8,   9.1,   0.0,  0.00, 
 06/11/13, 21:00,   3.3,  81,   5.4,   6.8,   9.0,   0.0,  0.00, 
 06/11/13, 22:00,   3.2,  84,   5.3,   6.8,   9.1,   0.0,  0.00, 
 06/11/13, 23:00,   3.8,  79,   5.3,   6.8,   9.1,   0.0,  0.00, 
 06/11/14, 00:00,   4.7,  74,   5.2,   6.8,   9.0,   0.0,  0.00, 
 06/11/14, 01:00,   4.9,  81,   5.2,   6.8,   9.0,   0.0,  0.00, 
 06/11/14, 02:00,   4.9,  79,   5.2,   6.7,   8.9,   0.0,  0.00, 
 06/11/14, 03:00,   5.8,  75,   5.2,   6.7,   8.9,   0.0,  0.00, 
 06/11/14, 04:00,   5.3,  77,   5.2,   6.7,   8.9,   0.0,  0.00, 
 06/11/14, 05:00,   5.6,  77,   5.2,   6.7,   8.9,   0.0,  0.00, 
 06/11/14, 06:00,   6.2,  79,   5.2,   6.7,   8.8,   0.0,  0.00, 
 06/11/14, 07:00,   6.4,  84,   5.3,   6.6,   8.9,   0.0,  0.00, 
 06/11/14, 08:00,   6.2,  85,   5.3,   6.6,   9.0,   0.0,  0.00, 
 06/11/14, 09:00,   5.9,  88,   5.4,   6.6,   8.9,   0.0,  0.06, 
 06/11/14, 10:00,   5.3,  99,   5.5,   6.6,   8.9,   0.0,  0.04, 
 06/11/14, 11:00,   5.7,  99,   5.5,   6.6,   8.9,   0.0,  0.00, 
 06/11/14, 12:00,   5.8,  99,   5.6,   6.6,   8.9,   0.0,  0.08, 
 06/11/14, 13:00,   5.6,  99,   5.7,   6.6,   8.9,   0.0,  0.06, 
 06/11/14, 14:00,   5.8,  99,   5.8,   6.7,   8.9,   0.0,  0.05, 
 06/11/14, 15:00,   5.9,  99,   5.9,   6.7,   8.9,   0.0,  0.00, 
 06/11/14, 16:00,   6.3,  99,   5.9,   6.7,   8.8,   0.0,  0.01, 
 06/11/14, 17:00,   6.4,  99,   6.0,   6.7,   8.8,   0.0,  0.00, 
 06/11/14, 18:00,   6.8,  98,   6.0,   6.8,   8.8,   0.0,  0.00, 
 06/11/14, 19:00,   6.9,  99,   6.1,   6.8,   8.7,   0.5,  0.00, 
 06/11/14, 20:00,   6.8,  99,   6.1,   6.8,   8.8,   0.0,  0.00, 
 06/11/14, 21:00,   6.5,  99,   6.2,   6.8,   8.7,   0.5,  0.00, 
 06/11/14, 22:00,   6.3,  99,   6.2,   6.9,   8.7,   0.0,  0.00, 
 06/11/14, 23:00,   6.0,  99,   6.3,   6.9,   8.8,   0.0,  0.00, 
 06/11/15, 00:00,   3.7,  99,   6.3,   6.9,   8.8,   0.5,  0.00, 
 06/11/15, 01:00,   2.4,  98,   6.3,   7.0,   8.6,   0.5,  0.00, 
 06/11/15, 02:00,   1.6,  96,   6.2,   7.0,   8.7,   0.0,  0.00, 
 06/11/15, 03:00,   1.0,  94,   6.1,   7.0,   8.6,   0.0,  0.00, 
 06/11/15, 04:00,  -0.2,  99,   5.9,   7.0,   8.6,   0.5,  0.00, 
 06/11/15, 05:00,  -0.3,  87,   5.7,   7.0,   8.6,   0.5,  0.00, 
 06/11/15, 06:00,  -0.8,  92,   5.5,   7.0,   8.6,   0.0,  0.00, 
 06/11/15, 07:00,  -0.3,  83,   5.3,   6.9,   8.7,   0.0,  0.00, 
 06/11/15, 08:00,   1.0,  75,   5.1,   6.9,   8.7,   0.0,  0.24, 
 06/11/15, 09:00,   0.6,  88,   5.0,   6.8,   8.7,   0.0,  0.49, 
 06/11/15, 10:00,   0.6,  98,   5.0,   6.7,   8.7,   0.0,  0.57, 
 06/11/15, 11:00,   1.1,  94,   5.1,   6.7,   8.7,   0.0,  0.78, 
 06/11/15, 12:00,   2.2,  86,   5.3,   6.6,   8.7,   0.0,  1.21, 
 06/11/15, 13:00,   2.6,  82,   5.6,   6.6,   8.7,   0.0,  1.59, 
 06/11/15, 14:00,   2.1,  82,   5.9,   6.6,   8.7,   0.0,  0.54, 
 06/11/15, 15:00,   2.0,  82,   6.1,   6.6,   8.7,   0.0,  0.78, 
 06/11/15, 16:00,   1.8,  82,   6.1,   6.7,   8.7,   0.0,  0.49, 
 06/11/15, 17:00,   1.0,  96,   6.0,   6.7,   8.7,   0.0,  0.00, 
 06/11/15, 18:00,   0.8,  90,   5.9,   6.7,   8.6,   0.0,  0.00, 
 06/11/15, 19:00,   0.6,  82,   5.8,   6.8,   8.6,   0.0,  0.00, 
 06/11/15, 20:00,  -0.8,  99,   5.6,   6.8,   8.6,   0.5,  0.00, 
 06/11/15, 21:00,  -0.4,  96,   5.5,   6.8,   8.6,   0.0,  0.00, 
 06/11/15, 22:00,  -0.6,  99,   5.4,   6.7,   8.5,   0.0,  0.00, 
 06/11/15, 23:00,  -0.5,  99,   5.2,   6.7,   8.6,   0.0,  0.00, 
 06/11/16, 00:00,  -0.5,  99,   5.1,   6.7,   8.6,   0.0,  0.00, 
 06/11/16, 01:00,  -0.5,  99,   5.0,   6.6,   8.5,   0.0,  0.00, 